Weather History for Richlands, VA

Change the Weather History Date:

Friday, April 11, 2014

  Actual Average (KBLF) Record (KBLF)
Temperature  
Mean Temperature 64 °F 54 °F  
Max Temperature 72 °F 64 °F 82 °F (2008)
Min Temperature 57 °F 44 °F 24 °F (1960)
Degree Days  
Heating Degree Days 0 12  
Month to date heating degree days 147  
Since 1 July heating degree days 4256  
Cooling Degree Days 0 1  
Month to date cooling degree days 9  
Year to date cooling degree days 13  
Growing Degree Days 14 (Base 50)    
Moisture  
Dew Point 37 °F    
Average Humidity 36    
Maximum Humidity 43    
Minimum Humidity 25    
Precipitation  
Precipitation 0.00 in 0.11 in 0.94 in (1999)
Month to date precipitation 1.16  
Year to date precipitation 10.33  
Snow  
Snow 0.00 in - - ()
Month to date snowfall  
Since 1 July snowfall  
Snow Depth -    
Sea Level Pressure  
Sea Level Pressure 30.14 in    
Wind  
Wind Speed 9 mph (SW)    
Max Wind Speed 18 mph    
Max Gust Speed 25 mph    
Visibility 10 miles    
Events Thunderstorm    
T = Trace of Precipitation, MM = Missing Value Source: NWS Daily Summary

Daily Weather History Graph

Daily Weather History Graph

Search for Another Location

Airport:

Trip Planner

Search our weather history database for the weather conditions in past years. The results will help you decide how hot, cold, wet, or windy it might be!

Date:

Astronomy

Apr. 11, 2014 Rise Set
Actual Time 6:58 AM EDT 7:58 PM EDT
Civil Twilight 6:31 AM EDT 8:25 PM EDT
Nautical Twilight 6:00 AM EDT 8:56 PM EDT
Astronomical Twilight 5:27 AM EDT 9:29 PM EDT
Moon 4:42 PM EDT (4/11) 4:47 AM EDT (4/11)
Length of Visible Light 13h 53m
Length of Day
13h 00m
Waxing Gibbous, 87% of the Moon is Illuminated
Apr 11
Waxing Gibbous
Apr 15
Full
Apr 22
Last Quarter
Apr 29
New
May 6
First Quarter

Hourly Weather History & Observations

Time (EDT) Temp. Dew Point Humidity Pressure Visibility Wind Dir Wind Speed Gust Speed Precip Events Conditions
12:15 AM 63.0 °F 34.0 °F 34% 30.14 in 10.0 mi SW 9.2 mph 16.1 mph N/A   Clear
12:35 AM 62.6 °F 34.5 °F 35% 30.14 in 10.0 mi SW 11.5 mph 17.3 mph N/A   Clear
12:55 AM 62.6 °F 34.7 °F 35% 30.14 in 10.0 mi SW 10.4 mph - N/A   Clear
1:15 AM 61.9 °F 34.7 °F 36% 30.14 in 10.0 mi SSW 6.9 mph - N/A   Clear
1:35 AM 61.7 °F 34.7 °F 36% 30.13 in 10.0 mi SSW 5.8 mph - N/A   Clear
1:55 AM 61.9 °F 34.3 °F 36% 30.13 in 10.0 mi SW 8.1 mph 16.1 mph N/A   Clear
2:15 AM 61.7 °F 34.0 °F 35% 30.13 in 10.0 mi SW 10.4 mph 17.3 mph N/A   Clear
2:35 AM 61.3 °F 34.0 °F 36% 30.13 in 10.0 mi SW 8.1 mph 16.1 mph N/A   Clear
2:55 AM 61.5 °F 33.8 °F 35% 30.12 in 10.0 mi WSW 5.8 mph 19.6 mph N/A   Clear
3:15 AM 60.8 °F 33.8 °F 36% 30.13 in 10.0 mi WSW 10.4 mph 16.1 mph N/A   Clear
3:35 AM 61.0 °F 33.8 °F 36% 30.14 in 10.0 mi WSW 11.5 mph 19.6 mph N/A   Clear
3:55 AM 60.4 °F 34.2 °F 37% 30.14 in 10.0 mi WSW 10.4 mph 18.4 mph N/A   Clear
4:15 AM 60.3 °F 34.5 °F 38% 30.14 in 10.0 mi WSW 10.4 mph - N/A   Clear
4:35 AM 59.2 °F 35.2 °F 41% 30.15 in 10.0 mi SW 6.9 mph - N/A   Clear
4:55 AM 58.5 °F 35.1 °F 42% 30.16 in 10.0 mi West 4.6 mph - N/A   Clear
5:15 AM 57.9 °F 35.6 °F 43% 30.16 in 10.0 mi West 8.1 mph - N/A   Clear
5:35 AM 58.1 °F 35.2 °F 42% 30.16 in 10.0 mi West 8.1 mph - N/A   Clear
5:55 AM 58.8 °F 34.9 °F 41% 30.17 in 10.0 mi WSW 6.9 mph - N/A   Clear
6:15 AM 58.1 °F 34.9 °F 42% 30.17 in 10.0 mi WSW 5.8 mph - N/A   Clear
6:35 AM 59.4 °F 34.2 °F 39% 30.17 in 10.0 mi SW 6.9 mph - N/A   Clear
6:55 AM 59.4 °F 34.2 °F 39% 30.17 in 10.0 mi SSW 5.8 mph - N/A   Clear
7:15 AM 59.4 °F 34.2 °F 39% 30.18 in 10.0 mi SW 5.8 mph - N/A   Clear
7:35 AM 59.0 °F 34.5 °F 40% 30.18 in 10.0 mi SSW 6.9 mph - N/A   Clear
7:55 AM 59.2 °F 34.3 °F 39% 30.18 in 10.0 mi SSW 6.9 mph - N/A   Clear
8:15 AM 59.9 °F 35.4 °F 40% 30.19 in 10.0 mi WSW 8.1 mph - N/A   Clear
8:35 AM 59.9 °F 35.8 °F 41% 30.20 in 10.0 mi SW 6.9 mph - N/A   Clear
8:55 AM 60.6 °F 36.1 °F 40% 30.19 in 10.0 mi SW 9.2 mph 17.3 mph N/A   Clear
9:15 AM 60.8 °F 36.1 °F 40% 30.20 in 10.0 mi WSW 13.8 mph 20.7 mph N/A   Clear
9:35 AM 61.0 °F 36.1 °F 40% 30.19 in 10.0 mi SW 10.4 mph 16.1 mph N/A   Clear
10:15 AM 63.0 °F 37.6 °F 39% 30.19 in 10.0 mi SSW 10.4 mph 18.4 mph N/A   Clear
10:35 AM 63.1 °F 38.3 °F 40% 30.19 in 10.0 mi SW 10.4 mph 17.3 mph N/A   Clear
10:55 AM 64.8 °F 39.9 °F 40% 30.18 in 10.0 mi SW 17.3 mph - N/A   Clear
11:15 AM 65.1 °F 39.6 °F 39% 30.18 in 10.0 mi SW 11.5 mph 17.3 mph N/A   Clear
11:35 AM 64.6 °F 39.2 °F 39% 30.18 in 10.0 mi SW 13.8 mph 21.9 mph N/A   Clear
11:55 AM 64.6 °F 39.2 °F 39% 30.17 in 10.0 mi SSW 13.8 mph 21.9 mph N/A   Clear
12:15 PM 65.5 °F 39.7 °F 39% 30.17 in 10.0 mi SW 18.4 mph 23.0 mph N/A   Clear
12:35 PM 64.9 °F 39.7 °F 40% 30.16 in 10.0 mi SW 16.1 mph 25.3 mph N/A Thunderstorm Clear
12:55 PM 66.0 °F 40.5 °F 39% 30.16 in 10.0 mi SSW 16.1 mph 20.7 mph N/A   Clear
1:15 PM 66.7 °F 42.1 °F 41% 30.15 in 10.0 mi South 11.5 mph 16.1 mph N/A   Clear
1:35 PM 67.8 °F 41.2 °F 38% 30.14 in 10.0 mi SSW 10.4 mph 21.9 mph N/A   Scattered Clouds
1:55 PM 69.6 °F 43.2 °F 38% 30.14 in 10.0 mi SSW 8.1 mph 18.4 mph N/A   Scattered Clouds
2:15 PM 68.4 °F 43.2 °F 40% 30.13 in 10.0 mi SW 9.2 mph 21.9 mph N/A   Scattered Clouds
2:35 PM 68.9 °F 42.3 °F 38% 30.12 in 10.0 mi SW 13.8 mph 21.9 mph N/A   Clear
2:55 PM 69.8 °F 43.3 °F 38% 30.12 in 10.0 mi WSW 11.5 mph 20.7 mph N/A   Clear
3:15 PM 70.0 °F 43.2 °F 38% 30.11 in 10.0 mi WSW 11.5 mph 23.0 mph N/A Thunderstorm Clear
3:35 PM 70.9 °F 42.6 °F 36% 30.10 in 10.0 mi SSW 12.7 mph 20.7 mph N/A   Clear
3:55 PM 70.3 °F 42.4 °F 36% 30.10 in 10.0 mi SSW 9.2 mph 17.3 mph N/A   Clear
4:15 PM 70.2 °F 42.8 °F 37% 30.08 in 10.0 mi SW 12.7 mph 19.6 mph N/A Thunderstorm Clear
4:35 PM 71.1 °F 42.3 °F 35% 30.08 in 10.0 mi SSW 13.8 mph 18.4 mph N/A   Clear
4:55 PM 72.1 °F 43.2 °F 35% 30.08 in 10.0 mi SSW 13.8 mph 19.6 mph N/A Thunderstorm Clear
5:15 PM 70.5 °F 41.7 °F 35% 30.08 in 10.0 mi SW 16.1 mph 20.7 mph N/A   Clear
5:35 PM 70.7 °F 41.4 °F 35% 30.08 in 10.0 mi SW 12.7 mph 19.6 mph N/A   Clear
5:55 PM 70.9 °F 41.0 °F 34% 30.08 in 10.0 mi SSW 12.7 mph 17.3 mph N/A Thunderstorm Clear
6:15 PM 71.1 °F 41.0 °F 34% 30.07 in 10.0 mi SSW 9.2 mph 18.4 mph N/A   Clear
6:35 PM 70.7 °F 39.2 °F 32% 30.07 in 10.0 mi SW 10.4 mph 17.3 mph N/A   Clear
6:55 PM 70.3 °F 38.5 °F 31% 30.08 in 10.0 mi SW 6.9 mph 16.1 mph N/A   Clear
7:15 PM 69.8 °F 35.4 °F 28% 30.08 in 10.0 mi SW 12.7 mph 21.9 mph N/A Thunderstorm Mostly Cloudy
7:35 PM 68.9 °F 34.3 °F 28% 30.10 in 10.0 mi WSW 8.1 mph - N/A Thunderstorm Overcast
7:55 PM 68.7 °F 34.9 °F 29% 30.10 in 10.0 mi SW 9.2 mph - N/A   Overcast
8:15 PM 68.7 °F 34.2 °F 28% 30.10 in 10.0 mi SW 5.8 mph - N/A   Overcast
8:35 PM 67.3 °F 34.3 °F 30% 30.10 in 10.0 mi SSE 4.6 mph - N/A   Scattered Clouds
8:55 PM 67.5 °F 30.6 °F 25% 30.11 in 10.0 mi SW 8.1 mph - N/A   Clear
9:15 PM 67.5 °F 30.6 °F 25% 30.12 in 10.0 mi SW 8.1 mph - N/A   Clear
9:35 PM 67.1 °F 31.3 °F 26% 30.12 in 10.0 mi SW 8.1 mph - N/A   Clear
9:55 PM 66.6 °F 32.2 °F 28% 30.13 in 10.0 mi WSW 6.9 mph - N/A   Clear
10:15 PM 66.2 °F 32.7 °F 29% 30.14 in 10.0 mi WSW 10.4 mph - N/A   Scattered Clouds
10:35 PM 64.9 °F 32.4 °F 30% 30.14 in 10.0 mi West 5.8 mph - N/A   Clear
10:55 PM 64.8 °F 32.9 °F 30% 30.15 in 10.0 mi WSW 6.9 mph - N/A   Clear
11:15 PM 64.9 °F 34.0 °F 32% 30.16 in 10.0 mi WSW 8.1 mph - N/A   Clear
11:35 PM 64.6 °F 34.3 °F 32% 30.16 in 10.0 mi WSW 4.6 mph - N/A   Clear
11:55 PM 64.8 °F 36.9 °F 36% 30.16 in 10.0 mi WSW 4.6 mph - N/A   Mostly Cloudy